Lid_Strength_Index
9 10 10 10 10 9 9 9 9 11 10 9 10 9 10 10 8 6 7 5 5 5 5 5 5 5 5 5 4 3 2 2 1 1 1 1 0 -0
9 9 10 10 9 8 9 8 8 9 10 10 10 10 10 9 7 7 7 6 7 6 6 5 5 5 5 5 4 4 3 2 2 2 2 1 1 1
9 10 10 9 10 10 10 9 9 9 12 10 10 10 10 8 8 8 8 8 7 7 6 5 6 6 5 5 4 4 4 3 3 3 3 3 2 1
9 9 10 10 10 10 10 11 12 12 11 12 12 11 9 8 8 9 9 8 8 8 6 6 6 6 5 5 5 5 5 4 4 4 4 3 3 2
10 10 10 11 11 11 12 12 12 12 12 12 12 10 9 9 9 9 9 9 8 7 7 7 7 6 5 5 5 5 4 4 5 5 4 4 4 3
10 11 10 10 11 12 12 13 12 12 12 12 11 10 10 9 10 10 10 9 9 8 8 7 7 6 6 6 5 5 5 5 5 5 5 5 5 4
12 12 11 10 10 11 12 12 12 13 13 12 11 11 11 11 11 10 10 9 8 8 8 7 6 6 6 6 5 5 5 6 6 6 6 5 5 5
12 11 10 9 10 10 10 10 11 12 12 11 11 12 11 11 10 11 11 11 12 7 9 7 6 7 6 6 5 5 6 6 6 6 6 6 6 6
13 13 13 12 12 11 11 11 11 10 10 10 11 11 12 10 10 10 10 10 11 9 8 8 7 8 6 6 6 5 6 6 6 6 6 6 6 6
15 15 14 14 12 12 13 13 12 10 10 10 10 10 10 10 9 9 9 10 9 8 7 10 7 8 7 7 6 6 6 6 6 6 6 6 6 7
15 14 14 13 13 13 13 13 12 11 10 10 10 10 10 10 9 9 10 11 11 8 7 9 8 9 8 7 7 6 7 7 7 6 6 6 6 6
14 14 13 13 14 14 13 12 12 12 11 10 10 10 9 9 9 9 9 11 10 10 7 9 9 10 11 7 7 6 5 6 6 6 6 6 7 6
15 14 13 13 14 13 12 11 12 11 11 11 11 10 10 9 9 9 8 9 9 10 8 8 10 10 10 10 9 7 6 7 7 6 6 6 7 6
15 14 13 13 13 12 11 12 12 11 11 11 11 11 11 10 10 8 8 7 7 8 8 8 10 10 11 11 11 9 8 7 6 6 6 6 6 6
14 14 13 13 12 11 12 12 12 11 12 12 12 11 11 10 9 8 7 6 7 7 7 7 9 9 10 11 12 10 10 8 7 7 7 6 7 6
13 13 12 12 12 12 12 12 12 12 12 12 12 11 11 10 10 8 8 8 8 8 7 7 8 9 10 10 10 10 9 10 8 7 6 6 7 7
14 13 13 13 14 13 13 13 13 12 12 12 12 12 11 11 9 8 8 9 10 10 9 8 7 8 8 9 10 9 9 9 7 6 6 7 7 7
14 14 14 14 14 14 14 14 13 13 13 12 12 12 12 11 9 9 9 9 11 10 10 10 9 9 9 8 8 10 8 8 7 6 6 8 8 8
14 15 15 15 15 15 14 14 14 13 12 13 13 12 12 10 9 10 9 10 11 10 10 10 10 11 13 13 10 8 9 7 7 8 7 6 9 9
15 15 15 15 15 15 14 14 14 13 13 13 13 12 11 10 10 10 10 11 11 10 10 10 10 11 12 13 13 10 9 7 8 8 9 8 7 8
15 15 15 15 15 14 14 14 14 14 14 14 13 11 10 10 10 10 11 12 11 11 11 11 10 12 10 9 11 10 8 7 6 8 9 9 9 9
15 15 15 15 15 14 14 14 13 14 14 13 12 11 10 9 11 11 11 11 11 11 11 10 9 9 10 11 11 10 9 8 7 7 8 8 10 11
15 15 15 15 15 14 14 14 14 14 13 13 12 10 10 10 10 10 11 11 11 11 10 10 10 10 11 11 12 10 10 9 9 9 8 8 8 8